Regional Weather Roundup
Issued by NWS

Home | Current Version | Previous Version | Text Only | Print | Product List | Glossary Off
Versions: 1 2 3 4 5 6 7 8 9 10 11 12 13 14 15 16 17 18 19 20 21 22 23 24 25 26 27 28 29 30 31 32 33 34 35 36 37 38 39 40 41 42 43 44 45 46 47 48 49 50

000
ASUS43 KDMX 221007
RWRIA

WEATHER ROUNDUP FOR IOWA
NATIONAL WEATHER SERVICE DES MOINES IA
500 AM CDT FRI MAY 22 2015

NOTE: "FAIR" INDICATES FEW OR NO CLOUDS BELOW 12,000 FEET WITH NO
SIGNIFICANT WEATHER AND/OR OBSTRUCTIONS TO VISIBILITY.

* - THESE STATIONS ARE NOT NWS STATIONS...THUS NOT UNDER NWS
QUALITY CONTROL.  THEY ALSO DO NOT REPORT WEATHER SUCH
AS PRECIPITATION OR FOG.

IAZ001>003-012>014-020>022-031>034-043>046-221100-
   NORTHWEST IOWA

CITY           SKY/WX    TMP DP  RH WIND       PRES   REMARKS
CARROLL *      PTCLDY    50  39  66 NW8       30.18R
CHEROKEE *     CLEAR     41  41 100 CALM      30.19R
DENISON *      CLEAR     48  41  76 CALM      30.17S
LE MARS *      CLEAR     43  41  93 CALM      30.19S
ORANGE CITY *  CLEAR     48  39  71 NW3       30.18S
SHELDON *      CLEAR     41  36  81 N3        30.17S
SIOUX CITY     CLEAR     46  36  68 CALM      30.19S
SPENCER        CLEAR     41  36  82 CALM      30.18S
STORM LAKE *   CLEAR     50  41  71 W10       30.19R
$$

IAZ055>058-069>071-079>083-090>094-221100-
   SOUTHWEST IOWA

CITY           SKY/WX    TMP DP  RH WIND       PRES   REMARKS
ATLANTIC *     CLEAR     45  43  93 CALM      30.20R
AUDUBON *      CLEAR     50  41  71 CALM      30.19S
CLARINDA *     CLEAR     46  43  87 CALM      30.22R
COUNCIL BLFS * CLEAR     54  41  62 W6        30.21R
CRESTON *      CLEAR     48  43  81 W7        30.20R
HARLAN  *      CLEAR     45  45 100 S5        30.23R
LAMONI         CLEAR     51  43  74 W8        30.19S
RED OAK *      PTCLDY    45  43  93 CALM      30.21R
SHENANDOAH *   CLEAR     46  45  93 CALM      30.22R
$$

IAZ047>049-059>061-072>074-084-221100-
   CENTRAL IOWA

CITY           SKY/WX    TMP DP  RH WIND       PRES   REMARKS
AMES           CLEAR     44  39  82 W6        30.16R
ANKENY *       CLEAR     48  43  81 W5        30.17S
CHARITON *       N/A     52  43  71 W9        30.17S
DES MOINES     CLEAR     52  41  66 NW6       30.17S
GRINNELL*      CLEAR     46  39  76 NW6       30.16S
KNOXVILLE *    CLEAR     48  43  81 W8        30.15S
MARSHALLTOWN   CLEAR     42  36  79 W7        30.15R
PELLA *        CLEAR     50  46  87 W5        30.17S
PERRY *          N/A     48  41  76 NW6       30.18R
$$

IAZ004>006-015-016-023>025-035-036-221100-
   NORTH CENTRAL IOWA

CITY           SKY/WX    TMP DP  RH WIND       PRES   REMARKS
ALGONA *       CLEAR     46  37  71 W8        30.18R
CLARION *      CLEAR     43  37  81 CALM      30.17S
ESTHERVILLE    CLEAR     44  34  67 W9        30.17R
FORT DODGE *   CLEAR     39  36  87 CALM      30.17S
MASON CITY     CLEAR     43  35  73 W7        30.17R
FOREST CITY *  CLEAR     37  36  93 CALM      30.16R
IOWA FALLS *     N/A     45  36  70 NW3       30.17R
$$

IAZ007>011-017>019-026>030-037>042-050>054-066-221100-
   NORTHEAST IOWA

CITY           SKY/WX    TMP DP  RH WIND       PRES   REMARKS
CEDAR RAPIDS   CLEAR     44  38  79 NW7       30.13R
CHARLES CITY * CLEAR     43  39  87 NW5       30.15R
CLINTON *      CLEAR     45  37  76 W5        30.15R
DECORAH *      CLEAR     46  37  71 CALM      30.13R
DUBUQUE        CLEAR     51  37  58 CALM      30.12R
MONTICELLO *   CLEAR     43  43 100 CALM      30.13R
OELWEIN *      CLEAR     45  39  81 W6        30.15R
WATERLOO       CLEAR     42  39  89 CALM      30.14R
$$

IAZ064-065-067-068-078-221100-
   EAST CENTRAL IOWA

CITY           SKY/WX    TMP DP  RH WIND       PRES   REMARKS
DAVENPORT      CLEAR     45  38  76 W7        30.13R
IOWA CITY      CLEAR     46  38  73 SW6       30.16R
MT. PLEASANT * CLEAR     46  43  87 W5        30.15S
MUSCATINE *    CLEAR     52  41  66 CALM      30.14R
QUAD CITIES      N/A     46  39  76 W6        30.13R
$$

IAZ062-063-075>077-085>089-095>099-221100-
   SOUTHEAST IOWA

CITY           SKY/WX    TMP DP  RH WIND       PRES   REMARKS
BURLINGTON     CLEAR     52  45  77 NW7       30.14R
FAIRFIELD *    CLEAR     48  43  81 W7        30.15S
FORT MADISON * CLEAR     52  45  76 W7        30.16R
KEOKUK *       CLEAR     52  45  76 NW3       30.15R
OSKALOOSA *      N/A     48  43  81 NW6       30.16R
CENTERVILLE *  CLEAR     48  48 100 W7        30.18S
OTTUMWA        CLEAR     50  43  77 W9        30.15S
WASHINGTON *   CLEAR     48  45  87 W8        30.16R
$$

ABBREVIATIONS USED IN REMARKS
   TC - TEMPERATURES IN CELSIUS
  WCI - WIND CHILL INDEX
   HX - HEAT INDEX
  VSB - VISIBILITY
$$




USA.gov is the U.S. government's official web portal to all federal, state and local government web resources and services.